Location: Alpha Ridge Park
(39.3209°N, 76.9128°W)
Time: 22:05:36
(UTC-04:00)

Vanguard 2 Rocket - Pass Details

Date: 25 May 2019
Orbit: 555 x 3326 km, 32.9° (Epoch: 24 June)

Event Time Altitude Azimuth Distance (km) Brightness Sun altitude
Rises 10:05:18 0° 272° (W) 6,577 10.9 47.7°
Reaches altitude 10° 10:10:22 10° 269° (W) 5,171 10.5 48.6°
Maximum altitude 10:23:31 55° 197° (SSW) 1,900 9.2 51.1°
Drops below altitude 10° 10:30:54 10° 121° (ESE) 3,003 10.4 52.4°
Sets 10:33:06 0° 117° (ESE) 3,706 10.6 52.8°
